Starlink 11718

operational
NORAD ID: 64132 Int'l Des: 2025-111 Owner: SPXS Country: US Constellation: starlink
LEOCIRCULAR

About Starlink 11718

Description loading...

Live Position

Loading 3D Globe...

Upcoming Passes

Altitude History

Altitude vs Time

uPlot chart will show altitude changes over time

Two-Line Element Set

1 64132U 25111K 26095.51076416 .00296078 00000-0 22217-2 0 9996
2 64132 42.9992 172.5091 0000991 189.6449 170.4400 15.70924679 50908
Epoch: Apr 5, 2026 • Age: 12 hours

Current Status

Altitude 358.3 km
Velocity 7.70 km/s
Sub-Earth Point -17.01°S, 177.23°E
Launch Date May 24, 2025
Age 0.8 years
Type internet

Technical Details

Classification Payload
Mass 960.00 kg
Dry Mass 910.00 kg
Total Mass 960.00 kg
Length 0.30 m
Diameter 4.10 m
Span 29.00 m
Shape Box + pan
Manufacturer SPXS
Bus Type Starlink V2MD
Phase Status In Orbit
Owner/State SPXS/US

Large Constellations

Loading constellations...